{"data":{"norad_id":66280,"intl_designator":"2025-247R","name":"STARLINK-35726","alt_names":[],"object_type":"PAYLOAD","status":"ACTIVE","operator":null,"country":"US","launch_date":"2025-10-31","launch_site_code":"AFWTR","launch_vehicle":null,"mission":null,"orbit_class":"UNKNOWN","rcs_meters":null,"size_class":null,"mass_kg":null,"dimensions":null,"purposes":["comms"],"wikipedia_slug":null,"has_3d_model":false,"image_url":null,"decayed_at":null,"tle_current":{"epoch":"2026-09-20T13:03:20.101824Z","epoch_age_seconds":92883,"freshness":"FRESH","line1":"1 66280U 25247R   26263.54398266  .00027743  00000+0  82897-3 0  9993","line2":"2 66280  53.1623   1.6199 0001001  46.7151 313.3935 15.34408819 50933","mean_motion":15.34408819,"eccentricity":0.0001001,"inclination_deg":53.1623,"raan_deg":1.6199,"arg_perigee_deg":46.7151,"mean_anomaly_deg":313.3935,"bstar":0.00082897,"rev_number":5093,"period_min":93.847218692243,"perigee_km":461.99226292189,"apogee_km":463.36179389037,"semimajor_km":6840.8140284061,"source":"CELESTRAK","updated_at":"2026-09-21T09:00:35.869928Z"}}}